Location: Dumpton Point
(51.3500°N, 1.4433°E)
Time: 13:03:13
(UTC+00:00)

Cosmos 1953 Rocket - Pass Details

Date: 09 April 2020
Orbit: 604 x 635 km, 82.5° (Epoch: 02 June)

Event Time Altitude Azimuth Distance (km) Brightness Sun altitude
Rises 19:24:36 0° 348° (NNW) 2,938 7.6 -7.2°
Reaches altitude 10° 19:26:51 10° 348° (NNW) 2,029 6.7 -7.6°
Maximum altitude 19:31:22 84° 261° (W) 647 3.7 -8.2°
Drops below altitude 10° 19:35:51 10° 174° (S) 2,019 5.9 -8.8°
Sets 19:38:05 0° 174° (S) 2,922 6.7 -9.2°
